[[{"header":{"parameterUnit":"m.s-1","parameterCategory":1,"la1":30.2991,"la2":30.254,"lo1":-89.0895,"lo2":-89.0444,"dy":0.0017,"dx":0.0017,"nx":28,"ny":28,"refTime":"2024-04-12T09:00:00:Z","depth":0,"parameterNumber":2,"parameterNumberName":"U-component_of_WINDS"},"data":[0,0,0,0,0,0,0,0,0,0,0,0,0,0,0,0,0,0,0,0,0,0,0,0,0,0,0,0,0,0,0,0,0,0,0,0,0,0,0,0,0,0,0,0,0,0,0,0,0,0,0,0,0,0,0,0,0,0,-2.4324,-2.4324,0,-2.4321,-2.4321,-2.4321,-2.4203,-2.42,-2.4197,-2.4194,-2.4193,-2.4196,-2.4199,0,0,0,0,0,0,0,0,0,0,0,0,0,-2.4227,-2.4229,-2.4324,-2.4324,-2.4324,-2.4321,-2.4321,-2.4321,-2.4204,-2.42,-2.4197,-2.4193,-2.4193,-2.4196,-2.4199,0,0,0,0,0,0,0,0,0,0,0,0,0,-2.4251,-2.423,-2.4324,-2.4265,-2.4259,-2.4321,-2.4321,-2.4321,-2.4205,-2.42,-2.4196,-2.4191,-2.4191,-2.4196,-2.42,-2.4318,0,0,-2.4213,-2.4215,0,0,0,0,0,0,0,0,-2.425,-2.4255,-2.4273,-2.4269,-2.4263,-2.4258,-2.4287,-2.432,-2.4206,-2.4226,-2.4194,-2.4189,-2.4219,-2.422,-2.423,-2.4318,-2.4318,-2.4213,-2.4216,-2.4217,-2.4219,0,0,0,0,0,0,0,-2.4249,-2.4254,-2.4323,-2.4274,-2.4268,-2.4239,-2.4237,-2.4293,-2.4248,-2.4224,-2.4215,-2.4216,-2.4215,-2.4226,-2.4229,-2.4318,-2.4213,-2.4217,-2.4219,-2.4221,-2.4503,-2.4508,0,0,0,0,0,0,-2.4255,-2.4254,-2.4323,-2.4323,-2.4245,-2.4244,-2.4242,-2.4264,-2.4247,-2.424,-2.422,-2.4211,-2.4221,-2.4224,-2.4229,-2.4367,-2.4217,-2.4221,-2.4224,-2.4498,-2.4504,-2.4509,0,0,0,0,0,0,-2.4253,-2.4262,-2.4323,-2.4286,-2.4291,-2.4251,-2.4276,-2.4267,-2.4278,-2.4245,-2.4236,-2.424,-2.4218,-2.4223,-2.4297,-2.4365,-2.4223,-2.4227,-2.4492,-2.45,-2.4507,-2.4643,0,0,0,0,0,0,-2.4251,-2.4262,-2.4307,-2.4288,-2.4294,-2.4391,-2.428,-2.427,-2.4285,-2.4273,-2.4261,-2.4254,-2.4215,-2.4291,-2.4301,-2.4368,-2.4231,-2.4486,-2.4496,-2.4504,-2.4633,-2.4655,-2.4673,0,0,0,0,0,-2.4248,-2.4346,-2.431,-2.4319,-2.4349,-2.4395,-2.4399,-2.4351,-2.4291,-2.4336,-2.4314,-2.4255,-2.4356,-2.43,-2.431,-2.4379,-2.4482,-2.4493,-2.4504,-2.4624,-2.465,-2.4673,0,0,0,0,0,0,-2.4374,-2.4342,-2.4302,-2.4396,-2.4399,-2.4375,-2.443,-2.438,-2.4401,-2.4388,-2.4328,-2.4326,-2.441,-2.4401,-2.434,-2.4493,-2.4408,-2.4422,-2.4496,-2.4521,-2.4541,-2.4542,-2.4234,0,0,0,0,0,-2.4413,-2.4453,-2.4423,-2.4509,-2.4513,-2.4472,-2.449,-2.4452,-2.4453,-2.4454,-2.4438,-2.4442,-2.4474,-2.4497,-2.4524,-2.463,-2.4626,-2.4683,-2.4704,-2.472,-2.4734,-2.4789,-2.4814,-2.4546,-2.4546,-2.4546,0,0,-2.4494,-2.4481,-2.451,-2.4534,-2.4532,-2.4576,-2.4473,-2.4524,-2.4555,-2.4462,-2.4531,-2.4519,-2.4519,-2.461,-2.4649,-2.4606,-2.4806,-2.4735,-2.4748,-2.4752,-2.4803,-2.4829,-2.4852,-2.4554,-2.4552,-2.4551,0,0,-2.4663,-2.4657,-2.4728,-2.4728,-2.4726,-2.4698,-2.4716,-2.4699,-2.4688,-2.4756,-2.4687,-2.4723,-2.478,-2.4783,-2.4792,-2.4962,-2.4909,-2.4973,-2.508,-2.5135,-2.5156,-2.5175,-2.5236,-2.5259,-2.4986,-2.4986,-2.4986,0,-2.4764,-2.4826,-2.4771,-2.4826,-2.4839,-2.4756,-2.4828,-2.483,-2.4838,-2.4849,-2.48,-2.487,-2.4864,-2.4954,-2.4996,-2.5006,-2.5024,-2.4975,-2.5157,-2.5175,-2.5192,-2.525,-2.5273,-2.4994,-2.4993,-2.4992,-2.4992,0,-2.495,-2.4995,-2.5052,-2.5062,-2.5081,-2.5144,-2.5099,-2.5125,-2.5086,-2.5063,-2.5134,-2.5123,-2.5148,-2.5166,-2.5129,-2.5252,-2.5225,-2.5168,-2.5081,-2.5226,-2.528,-2.5302,-2.5005,-2.5003,-2.5,-2.4998,0,0,-2.52,-2.5178,-2.52,-2.5203,-2.5195,-2.5228,-2.5288,-2.5311,-2.5335,-2.5343,-2.5392,-2.5442,-2.5388,-2.5399,-2.536,-2.5409,-2.5545,-2.5345,-2.5344,-2.5384,-2.5681,-2.5725,-2.5752,-2.5509,-2.5513,-2.5516,-2.5681,0,-2.5364,-2.5465,-2.5417,-2.5523,-2.5564,-2.5485,-2.5537,-2.5538,-2.5518,-2.5549,-2.5527,-2.5564,-2.549,-2.5496,-2.554,-2.5519,-2.5604,-2.5507,-2.5555,-2.5557,-2.5558,-2.5779,-2.5826,-2.5982,-2.5702,-2.5705,-2.5708,0,-2.557,-2.5586,-2.5697,-2.5681,-2.5696,-2.5743,-2.5761,-2.5792,-2.5791,-2.5773,-2.5785,-2.5736,-2.5793,-2.5707,-2.5785,-2.572,-2.5736,-2.5729,-2.5734,-2.5738,-2.5642,-2.579,-2.6031,-2.6055,-2.574,-2.5737,-2.5735,0,-2.5742,-2.5792,-2.5864,-2.5869,-2.5852,-2.5888,-2.5882,-2.5877,-2.5894,-2.5909,-2.592,-2.5942,-2.5955,-2.5974,-2.5931,-2.5872,-2.6017,-2.5926,-2.6004,-2.6005,-2.6039,-2.6038,-2.6287,-2.6048,-2.6048,-2.6047,-2.6047,0,-2.5932,-2.6003,-2.5941,-2.5986,-2.6063,-2.6007,-2.6085,-2.6071,-2.6067,-2.6108,-2.6041,-2.608,-2.6022,-2.6056,-2.6023,-2.6094,-2.61,-2.6087,-2.6078,-2.6094,-2.6096,-2.6105,-2.6094,-2.6054,-2.6052,-2.6051,-2.605,0,-2.6138,-2.61,-2.6173,-2.6151,-2.6147,-2.6205,-2.6186,-2.6226,-2.6201,-2.6254,-2.6263,-2.6224,-2.6261,-2.6221,-2.6254,-2.6232,-2.6328,-2.6302,-2.6329,-2.6322,-2.6402,-2.6395,-2.6667,-2.67,-2.6439,-2.6442,-2.6444,0,-2.6262,-2.6314,-2.6298,-2.632,-2.6319,-2.6355,-2.6372,-2.632,-2.634,-2.6343,-2.6384,-2.6415,-2.6437,-2.6499,-2.6474,-2.65,-2.6474,-2.6568,-2.6478,-2.6493,-2.6477,-2.6475,-2.648,-2.6587,-2.659,-2.6592,-2.6594,0,-2.6486,-2.6465,-2.6491,-2.6513,-2.6535,-2.6549,-2.6557,-2.658,-2.6525,-2.6551,-2.6588,-2.6605,-2.6639,-2.6671,-2.6689,-2.6683,-2.6631,-2.6623,-2.6642,-2.666,-2.6673,-2.6668,-2.638,-2.6617,-2.6615,-2.6613,-2.6612,-2.6611,-2.6655,-2.6698,-2.6694,-2.6726,-2.6727,-2.6737,-2.6774,-2.6753,-2.6783,-2.6806,-2.6773,-2.6819,-2.6816,-2.6835,-2.6836,-2.6871,-2.6831,-2.6859,-2.6867,-2.6875,-2.6887,-2.6667,-2.6874,-2.6873,-2.6873,-2.6872,-2.6872,0,-2.6877,-2.687,-2.69,-2.6914,-2.694,-2.6887,-2.6894,-2.6919,-2.696,-2.6962,-2.6985,-2.7027,-2.7057,-2.7035,-2.706,-2.7093,-2.7069,-2.7101,-2.7099,-2.7099,-2.6921,-2.6902,-2.712,-2.712,-2.712,-2.712,-2.712,-2.712,-2.6995,-2.7066,-2.7043,-2.7114,-2.7105,-2.7149,-2.7158,-2.7167,-2.7168,-2.7218,-2.7243,-2.7228,-2.722,-2.7244,-2.727,-2.7262,-2.7276,-2.7317,-2.7301,-2.7136,-2.7111,-2.7088,-2.707,-2.732,-2.732,-2.7476,-2.7477,-2.7479]},{"header":{"parameterUnit":"m.s-1","parameterCategory":1,"la1":30.2991,"la2":30.254,"lo1":-89.0895,"lo2":-89.0444,"dy":0.0017,"dx":0.0017,"nx":28,"ny":28,"refTime":"2024-04-12T09:00:00:Z","depth":0,"parameterNumber":3,"parameterNumberName":"V-component_of_WINDS"},"data":[0,0,0,0,0,0,0,0,0,0,0,0,0,0,0,0,0,0,0,0,0,0,0,0,0,0,0,0,0,0,0,0,0,0,0,0,0,0,0,0,0,0,0,0,0,0,0,0,0,0,0,0,0,0,0,0,0,0,-1.8229,-1.8229,0,-1.8302,-1.8303,-1.8304,-1.8299,-1.8298,-1.8297,-1.8296,-1.8368,-1.8371,-1.8374,0,0,0,0,0,0,0,0,0,0,0,0,0,-1.808,-1.8083,-1.8229,-1.823,-1.823,-1.8302,-1.8303,-1.8304,-1.8299,-1.8298,-1.8297,-1.8295,-1.8367,-1.8371,-1.8374,0,0,0,0,0,0,0,0,0,0,0,0,0,-1.8148,-1.8084,-1.8228,-1.8237,-1.8238,-1.8302,-1.8303,-1.8305,-1.83,-1.8298,-1.8296,-1.8295,-1.8366,-1.837,-1.8375,-1.8434,0,0,-1.8388,-1.839,0,0,0,0,0,0,0,0,-1.8144,-1.8154,-1.8235,-1.8236,-1.8238,-1.829,-1.8277,-1.8348,-1.83,-1.8276,-1.8296,-1.8294,-1.8343,-1.8349,-1.8367,-1.8438,-1.8441,-1.8389,-1.8391,-1.8393,-1.8394,0,0,0,0,0,0,0,-1.814,-1.815,-1.8258,-1.8236,-1.8238,-1.8236,-1.8243,-1.8291,-1.8318,-1.8278,-1.8278,-1.8287,-1.8344,-1.8363,-1.8368,-1.8442,-1.8388,-1.8392,-1.8395,-1.8397,-1.8565,-1.8567,0,0,0,0,0,0,-1.8133,-1.8146,-1.8255,-1.826,-1.8186,-1.824,-1.8248,-1.8275,-1.8317,-1.8322,-1.8288,-1.8286,-1.8356,-1.8363,-1.8371,-1.8444,-1.8393,-1.8397,-1.84,-1.8563,-1.8565,-1.8567,0,0,0,0,0,0,-1.813,-1.8143,-1.8252,-1.8203,-1.8217,-1.8244,-1.8274,-1.8277,-1.8296,-1.8325,-1.8329,-1.8303,-1.8355,-1.8365,-1.8419,-1.8446,-1.8399,-1.8403,-1.8561,-1.8564,-1.8566,-1.8589,0,0,0,0,0,0,-1.8126,-1.8142,-1.8166,-1.8204,-1.822,-1.83,-1.8275,-1.828,-1.8304,-1.8302,-1.834,-1.8344,-1.8354,-1.8412,-1.8423,-1.8451,-1.8407,-1.8559,-1.8562,-1.8566,-1.8586,-1.8592,-1.8598,0,0,0,0,0,-1.8121,-1.8169,-1.8167,-1.818,-1.825,-1.8302,-1.8311,-1.8322,-1.8306,-1.833,-1.8348,-1.8343,-1.8441,-1.8418,-1.843,-1.846,-1.8557,-1.8561,-1.8565,-1.8584,-1.8591,-1.8598,0,0,0,0,0,0,-1.8132,-1.8174,-1.8173,-1.8234,-1.8265,-1.8301,-1.8331,-1.833,-1.8365,-1.8361,-1.8373,-1.8382,-1.8436,-1.8453,-1.8426,-1.852,-1.8497,-1.8504,-1.8507,-1.8514,-1.852,-1.8514,-1.841,0,0,0,0,0,-1.8142,-1.8182,-1.8215,-1.8267,-1.8282,-1.8304,-1.8327,-1.8333,-1.8365,-1.8377,-1.84,-1.8429,-1.8467,-1.8491,-1.8527,-1.8588,-1.8596,-1.8615,-1.8621,-1.8625,-1.8631,-1.8664,-1.8673,-1.8581,-1.8581,-1.8581,0,0,-1.8162,-1.819,-1.8214,-1.827,-1.8294,-1.8333,-1.8315,-1.8357,-1.8387,-1.8383,-1.8436,-1.8453,-1.8487,-1.8545,-1.8572,-1.8561,-1.8658,-1.863,-1.8634,-1.8637,-1.8669,-1.8678,-1.8686,-1.8584,-1.8583,-1.8583,0,0,-1.822,-1.8245,-1.8291,-1.8316,-1.8353,-1.8367,-1.8378,-1.8414,-1.8426,-1.848,-1.8478,-1.8512,-1.8577,-1.8601,-1.8622,-1.8688,-1.8685,-1.87,-1.873,-1.8762,-1.8769,-1.8776,-1.88,-1.8808,-1.8705,-1.8705,-1.8705,0,-1.8241,-1.8302,-1.8314,-1.8358,-1.8382,-1.8381,-1.8427,-1.845,-1.8496,-1.8513,-1.85,-1.8581,-1.8604,-1.8668,-1.8684,-1.8701,-1.8713,-1.8696,-1.8768,-1.8774,-1.878,-1.8803,-1.8812,-1.8707,-1.8707,-1.8706,-1.8706,0,-1.8325,-1.8367,-1.8399,-1.8445,-1.8473,-1.8517,-1.8535,-1.8562,-1.8565,-1.8581,-1.8635,-1.8662,-1.8704,-1.8719,-1.8723,-1.8783,-1.8775,-1.8765,-1.8743,-1.8791,-1.8812,-1.8821,-1.8709,-1.8709,-1.8708,-1.8708,0,0,-1.8392,-1.8445,-1.8456,-1.8477,-1.8518,-1.8551,-1.8594,-1.8636,-1.8658,-1.869,-1.8727,-1.8782,-1.8773,-1.8796,-1.8802,-1.8831,-1.8882,-1.8817,-1.8818,-1.8828,-1.8949,-1.8957,-1.8967,-1.8879,-1.8881,-1.8883,-1.8947,0,-1.8454,-1.8533,-1.8545,-1.8614,-1.8653,-1.8653,-1.8691,-1.872,-1.8735,-1.8769,-1.8785,-1.8824,-1.8809,-1.8824,-1.8852,-1.887,-1.8906,-1.8865,-1.8913,-1.8914,-1.8905,-1.8978,-1.8986,-1.9046,-1.8955,-1.8957,-1.8958,0,-1.8537,-1.8573,-1.8646,-1.8682,-1.8698,-1.8732,-1.8772,-1.8805,-1.8837,-1.8846,-1.8872,-1.8875,-1.8919,-1.8895,-1.8956,-1.8927,-1.8948,-1.8959,-1.8962,-1.8967,-1.8939,-1.8985,-1.9065,-1.9074,-1.8971,-1.897,-1.8969,0,-1.8579,-1.8645,-1.8697,-1.8715,-1.8758,-1.8782,-1.8801,-1.8831,-1.8856,-1.8889,-1.8905,-1.8943,-1.8964,-1.8993,-1.9005,-1.8986,-1.9066,-1.9042,-1.9074,-1.9073,-1.909,-1.9089,-1.9175,-1.9103,-1.9103,-1.9103,-1.9103,0,-1.8647,-1.8692,-1.8717,-1.8749,-1.8799,-1.8812,-1.886,-1.8878,-1.8905,-1.894,-1.8942,-1.8974,-1.8989,-1.9024,-1.9034,-1.9082,-1.9092,-1.91,-1.9102,-1.91,-1.9099,-1.9113,-1.9109,-1.9105,-1.9105,-1.9104,-1.9104,0,-1.8702,-1.8721,-1.8778,-1.8814,-1.8824,-1.8859,-1.889,-1.892,-1.8935,-1.8979,-1.899,-1.9013,-1.9054,-1.907,-1.9119,-1.9126,-1.9182,-1.9181,-1.9172,-1.9172,-1.9203,-1.92,-1.9301,-1.9315,-1.9234,-1.9235,-1.9235,0,-1.8745,-1.8779,-1.8819,-1.8843,-1.8863,-1.8902,-1.8927,-1.8941,-1.8966,-1.9006,-1.9031,-1.9072,-1.9106,-1.9171,-1.9191,-1.9229,-1.9228,-1.9261,-1.9234,-1.9231,-1.9229,-1.9227,-1.923,-1.9266,-1.9267,-1.9267,-1.9268,0,-1.8818,-1.8825,-1.8862,-1.8902,-1.8932,-1.8964,-1.8995,-1.9014,-1.9032,-1.9061,-1.9103,-1.9129,-1.918,-1.922,-1.9259,-1.9277,-1.9275,-1.9276,-1.9286,-1.9284,-1.9277,-1.9282,-1.9186,-1.9274,-1.9273,-1.9273,-1.9273,-1.9272,-1.8868,-1.8899,-1.8932,-1.8973,-1.8998,-1.9026,-1.9057,-1.9076,-1.9112,-1.9155,-1.9161,-1.9206,-1.9236,-1.9288,-1.9308,-1.9343,-1.9334,-1.9348,-1.9351,-1.9354,-1.9357,-1.9272,-1.935,-1.935,-1.935,-1.935,-1.9349,0,-1.8941,-1.8963,-1.9,-1.9044,-1.9076,-1.9072,-1.9106,-1.9133,-1.9173,-1.9202,-1.9235,-1.9283,-1.9322,-1.9346,-1.9385,-1.9408,-1.9409,-1.9418,-1.9417,-1.9421,-1.9362,-1.935,-1.9417,-1.9417,-1.9417,-1.9417,-1.9417,-1.9417,-1.8984,-1.9036,-1.9047,-1.9111,-1.9131,-1.9177,-1.9196,-1.9223,-1.9246,-1.93,-1.9333,-1.9349,-1.9375,-1.9416,-1.9452,-1.9457,-1.9472,-1.9482,-1.9487,-1.9432,-1.9425,-1.9418,-1.9407,-1.9485,-1.9485,-1.9543,-1.9543,-1.9544]}]]